This is the latest recevied weather packets stored in our database for station/object K1WJY. If no packets are shown the sender has not sent any weather packets the latest 10 day(s).
| Time | Temp. | Humidity | Pressure | Rain* | Wind** | Luminosity | Snow |
|---|---|---|---|---|---|---|---|
| 1777904263 | 14.44° C | 53% | 1009.1 hPa | 0 mm | - | 745 W/m² | - |
| 1777903961 | 13.89° C | 52% | 1009 hPa | 0 mm | - | 749 W/m² | - |
| 1777903657 | 13.89° C | 53% | 1008.9 hPa | 0 mm | - | 758 W/m² | - |
| 1777903353 | 13.33° C | 54% | 1009.1 hPa | 0 mm | - | 789 W/m² | - |
| 1777903050 | 13.89° C | 51% | 1009.5 hPa | 0 mm | - | 314 W/m² | - |
| 1777902746 | 13.89° C | 49% | 1009.6 hPa | 0 mm | - | 796 W/m² | - |
| 1777902444 | 13.89° C | 49% | 1009.5 hPa | 0 mm | - | 731 W/m² | - |
| 1777902140 | 13.89° C | 52% | 1009.4 hPa | 0 mm | - | 715 W/m² | - |
| 1777901839 | 13.33° C | 52% | 1009.5 hPa | 0 mm | - | 717 W/m² | - |
| 1777901536 | 12.78° C | 50% | 1009.8 hPa | 0 mm | - | 502 W/m² | - |
| 1777901233 | 13.89° C | 51% | 1009.7 hPa | 0 mm | - | 698 W/m² | - |
| 1777900930 | 12.78° C | 51% | 1009.7 hPa | 0 mm | - | 657 W/m² | - |
| 1777900628 | 12.78° C | 54% | 1009.6 hPa | 0 mm | - | 646 W/m² | - |
| 1777900324 | 12.22° C | 53% | 1009.7 hPa | 0 mm | - | 633 W/m² | - |
| 1777900022 | 11.67° C | 54% | 1009.8 hPa | 0 mm | - | 607 W/m² | - |
| 1777899717 | 12.22° C | 55% | 1009.8 hPa | 0 mm | - | 584 W/m² | - |
| 1777899415 | 11.67° C | 53% | 1009.7 hPa | 0 mm | - | 571 W/m² | - |
| 1777899113 | 12.22° C | 54% | 1009.7 hPa | 0 mm | - | 557 W/m² | - |
| 1777898810 | 11.67° C | 58% | 1009.8 hPa | 0 mm | - | 537 W/m² | - |
| 1777898508 | 11.67° C | 59% | 1009.7 hPa | 0 mm | - | 511 W/m² | - |
| 1777898205 | 11.67° C | 57% | 1009.7 hPa | 0 mm | - | 454 W/m² | - |
| 1777897902 | 11.11° C | 57% | 1010 hPa | 0 mm | - | 420 W/m² | - |
| 1777897597 | 10.56° C | 57% | 1009.8 hPa | 0 mm | - | 406 W/m² | - |
| 1777897293 | 10.56° C | 58% | 1009.9 hPa | 0 mm | - | 377 W/m² | - |
| 1777896990 | 10° C | 60% | 1009.8 hPa | 0 mm | - | 356 W/m² | - |
* Rain latest hour (hover to see other rain measurements)
** Current wind speed in m/s (hover to see current wind gust speed)